Home > Weather > Tadjoura > Past weeks

Flag for Djibouti Weather for the Past 2 Weeks in Tadjoura, Djibouti

Now
86 °F

Passing clouds.


Feels Like: 99 °F
Forecast: 79 / 92 °F
Wind: 6 mph from Southeast

Location: Djibouti Ambouli

Current Time: May 3, 2016 at 4:11:18 AM

Latest Report: May 2, 2016 at 10:00 PM


Visibility: N/A

Pressure: 29.86 "Hg

Humidity: 79%

Dew Point: 79 °F

Location of TadjouraLocation

Historic Weather in Tadjoura — Graph

°F

Tadjoura Temperature Yesterday

Maximum temperature yesterday: 95 °F (at 11:00 AM)
Minimum temperature yesterday: 84 °F (at 12:00 AM)
Average temperature yesterday: 89 °F

High & Low Weather Summary for the Past Weeks

 TemperatureHumidityPressure
High95 °F (May 2, 11:00 AM)100% (Apr 19, 11:00 AM)29.98 "Hg (Apr 19, 11:00 AM)
Low68 °F (Apr 23, 7:00 AM)49% (Apr 18, 11:00 AM)29.68 "Hg (Apr 24, 4:00 PM)
Average88 °F73%29.83 "Hg
* Reported Apr 18 7:00 AM — May 2 10:00 PM, Tadjoura, Weather by CustomWeather, © 2016

Note: Actual official high and low records may vary slightly from our data, if they occured in-between our weather recording intervals... More about our weather records

Advertising

Tadjoura Weather History for the Previous 24 Hours

Scroll right to see more
 ConditionsComfort  
Time TempWeatherWind HumidityBarometerVisibility
10:00 PM
Mon, May 2
86 °FPassing clouds.6 mph79%29.86 "HgN/A
9:00 PM86 °FPassing clouds.6 mph79%29.83 "HgN/A
8:00 PM88 °FPassing clouds.8 mph75%29.83 "HgN/A
7:00 PM88 °FPassing clouds.12 mph75%29.77 "HgN/A
6:00 PM88 °FPassing clouds.12 mph75%29.74 "HgN/A
4:00 PM90 °FPassing clouds.12 mph71%29.74 "HgN/A
3:00 PM91 °FPassing clouds.12 mph67%29.77 "HgN/A
2:00 PM91 °FPassing clouds.12 mph67%29.80 "HgN/A
1:00 PM91 °FPassing clouds.14 mph67%29.83 "HgN/A
12:00 PM93 °FPassing clouds.16 mph63%29.86 "HgN/A
11:00 AM95 °FPassing clouds.14 mph60%29.95 "Hg1 mi
10:00 AM93 °FPassing clouds.12 mph59%29.89 "HgN/A
9:00 AM90 °FPassing clouds.9 mph75%29.92 "HgN/A
8:00 AM90 °FPassing clouds.8 mph71%29.89 "HgN/A
7:00 AM88 °FPartly sunny.8 mph75%29.89 "HgN/A
6:00 AM86 °FPartly sunny.12 mph79%29.86 "HgN/A
5:00 AM84 °FPassing clouds.9 mph84%29.83 "HgN/A
Weather by CustomWeather, © 2016

See weather overviewHow to use our weather pages